Location: ?????oe
(44.4874°N, 135.7046°E)
Time: 23:15:35
(UTC+00:00)

IRIDIUM 106 - Visible Passes

Search period start: 13 March 2026 00:00
Search period end: 23 March 2026 00:00
Orbit: 776 x 779 km, 86.4° (Epoch: 13 March)

Date Brightness Start Highest point End Pass type
(mag) Time Alt. Az. Time Alt. Az. Time Alt. Az.
13 Mar 6.5 12:34:23 19° N 12:34:23 19° N 12:35:49 10° N visible
14 Mar 6.2 12:00:31 21° NNE 12:00:31 21° NNE 12:02:14 10° N visible
14 Mar 7.2 13:40:57 12° NW 13:40:57 12° NW 13:41:41 10° NNW visible
15 Mar 6.1 11:26:37 20° NNE 11:26:37 20° NNE 11:28:23 10° NNE visible
15 Mar 6.7 13:07:03 20° NNW 13:07:03 20° NNW 13:09:00 10° NNW visible
16 Mar 6.2 10:52:41 15° NE 10:52:41 15° NE 10:54:09 10° NNE visible
16 Mar 6.0 12:33:07 29° NNW 12:33:07 29° NNW 12:35:50 10° N visible
17 Mar 5.3 11:59:08 39° N 11:59:08 39° N 12:02:24 10° N visible
17 Mar 7.2 13:39:34 12° WNW 13:39:34 12° WNW 13:40:40 10° NW visible
18 Mar 5.0 11:25:06 39° NE 11:25:06 39° NE 11:28:43 10° NNE visible
18 Mar 6.6 13:05:32 21° WNW 13:05:32 21° WNW 13:08:40 10° NNW visible
19 Mar 5.3 10:51:00 27° ENE 10:51:00 27° ENE 10:54:44 10° NNE visible
19 Mar 5.7 12:31:26 36° WNW 12:31:26 36° WNW 12:35:45 10° NNW visible
20 Mar 5.8 10:16:51 16° E 10:17:09 16° ENE 10:20:14 10° NE visible
20 Mar 4.6 11:57:16 66° W 11:57:16 66° W 12:02:29 10° N visible
21 Mar 4.2 11:23:01 61° SE 11:23:44 70° E 11:28:56 10° N visible
21 Mar 6.9 13:03:25 14° W 13:05:02 15° WNW 13:08:04 10° NW visible
22 Mar 4.8 10:48:39 30° SE 10:50:20 39° E 10:55:09 10° NNE visible
22 Mar 6.2 12:29:03 20° WSW 12:31:09 26° WNW 12:35:33 10° NNW visible
